#timestamp,LO_Frequency,Hit,StdDev 
1664928015.1,286046993.6,N
1664928016.0,286046993.6,N
1664928035.8,286046995.2,N
1664928055.6,286046995.0,N
1664928075.5,286046995.1,N
1664928095.3,286046997.7,N
1664928115.1,286046997.8,N
1664928135.9,286046999.5,N
1664928155.7,286046997.2,N
1664928175.6,286047000.7,N
1664928195.4,286047001.2,N
1664928215.2,286046998.1,N
1664928235.1,286046996.7,N
1664928236.0,286046996.7,N
1664928255.8,286046999.0,N
1664928275.6,286047002.5,N
1664928295.5,286047002.2,N
1664928315.3,286047002.1,N
1664928335.2,286047001.5,N
1664928355.9,286047002.7,N
1664928375.7,286047000.5,N
1664928395.6,286047000.4,N
1664928415.4,286046998.3,N
1664928435.2,286046997.4,N
1664928455.1,286046995.2,N
1664928456.0,286046995.2,N
1664928475.8,286046999.0,N
1664928495.7,286046997.0,N
1664928515.5,286046996.0,N
1664928535.3,286046998.3,N
1664928555.2,286046995.3,N
1664928575.0,286046998.0,N
1664928575.9,286046998.0,N
1664928595.7,286046997.8,N
1664928615.6,286046999.2,N
1664928635.4,286046999.3,N
1664928655.3,286046999.2,N
1664928675.1,286047011.9,Y
1664928695.8,286047000.4,P
1664928715.7,286047001.9,N
1664928735.5,286047003.8,N
1664928755.3,286047004.4,N
1664928775.2,286047002.8,N
1664928795.0,286047000.0,N
1664928795.9,286047000.0,N
1664928815.8,286047001.6,N
1664928835.6,286047001.8,N
1664928855.4,286046998.2,N
1664928875.3,286047001.2,N
1664928895.1,286046998.7,N
1664928915.9,286046999.6,N
1664928935.7,286046996.9,N
1664928955.5,286046996.7,N
1664928975.4,286046999.3,N
1664928995.2,286046998.7,N
1664929015.0,286047000.5,N
1664929015.9,286047000.5,N
1664929035.8,286046998.3,N
1664929055.6,286046997.2,N
1664929075.5,286046997.0,N
1664929095.3,286046994.9,N
1664929115.1,286046997.4,N
1664929135.9,286046998.5,N
1664929155.7,286046998.4,N
1664929175.5,286047000.4,N
1664929195.4,286046998.2,N
1664929215.2,286046998.2,N
1664929235.0,286046999.8,N
1664929236.0,286046999.8,N
1664929255.8,286047000.6,N
1664929275.6,286047000.5,N
1664929295.5,286047000.9,N
1664929315.3,286047000.1,N
1664929335.1,286046998.2,N
1664929355.9,286047000.0,N
1664929375.7,286046998.6,N
1664929395.6,286047001.8,N
1664929415.4,286047001.6,N
1664929435.2,286047000.5,N
1664929455.1,286047002.1,N
1664929456.0,286047002.1,N
1664929475.8,286047000.8,N
1664929495.6,286047001.7,N
1664929515.5,286047002.1,N
1664929535.3,286047001.9,N
1664929555.2,286046998.6,N
1664929575.9,286047000.6,N
1664929595.7,286047000.0,N
1664929615.6,286047004.0,N
1664929635.4,286047000.9,N
1664929655.3,286047002.1,N
1664929675.1,286046998.1,N
1664929676.0,286046998.1,N
1664929695.8,286047000.6,N
1664929715.7,286046997.6,N
1664929735.5,286046997.3,N
1664929755.3,286046996.2,N
1664929775.2,286046994.0,Y
1664929795.0,286046995.1,P
1664929795.9,286046995.1,N
1664929815.8,286046995.6,N
1664929835.6,286046996.8,N
1664929855.4,286046995.1,N
1664929875.3,286046997.1,N
1664929895.1,286046999.1,N
1664929915.9,286047001.1,N
1664929935.7,286046998.8,N
1664929955.5,286047001.4,N
1664929975.4,286047000.5,N
1664929995.2,286046998.8,N
1664930015.0,286047000.3,N
1664930015.9,286047000.3,N
1664930035.8,286046998.6,N
1664930055.6,286046996.9,N
1664930075.5,286046995.2,N
1664930095.3,286046994.0,N
1664930115.1,286046991.9,Y
1664930135.9,286046996.6,P
1664930155.7,286046996.6,P
1664930175.6,286046997.8,P
1664930195.4,286046996.6,Y
1664930215.2,286047004.1,P
1664930235.1,286047003.4,N
1664930236.0,286047003.4,N
1664930255.8,286047001.4,N
1664930275.7,286047002.7,N
1664930295.5,286047004.2,N
1664930315.3,286047005.4,N
1664930335.2,286047007.2,Y
1664930355.0,286047005.7,P
1664930355.9,286047005.7,P
1664930375.7,286047004.2,N
1664930395.6,286047003.5,N
1664930415.4,286047004.4,Y
1664930435.3,286046997.4,P
1664930455.1,286046999.1,N
1664930456.0,286046999.1,N
1664930475.8,286046999.3,N
1664930495.7,286046997.7,N
1664930515.5,286046995.1,N
1664930535.3,286046993.7,N
1664930555.2,286046998.1,N
1664930575.0,286046999.1,N
1664930575.9,286046999.1,N
1664930595.8,286046997.1,N
1664930615.6,286046998.0,N
1664930635.4,286046995.3,N
1664930655.3,286046997.5,N
1664930675.1,286046996.9,N
1664930695.9,286046996.5,N
1664930715.7,286047000.7,N
1664930735.5,286046996.9,N
1664930755.4,286046997.8,N
1664930775.2,286046996.8,N
1664930795.0,286046998.2,N
1664930795.9,286046998.2,N
1664930815.8,286047001.9,N
1664930835.6,286047002.8,N
1664930855.5,286047000.4,N
1664930875.3,286046999.4,N
1664930895.1,286046997.3,N
1664930915.9,286046996.8,N
1664930935.7,286046996.9,N
1664930955.5,286046996.6,N
1664930975.4,286046996.5,N
1664930995.2,286046998.9,N
1664931015.1,286046999.1,N
1664931016.0,286046999.1,N
1664931035.8,286046999.1,N
1664931055.6,286046997.5,N
1664931075.5,286046998.8,N
1664931095.3,286047000.9,N
1664931115.1,286047002.8,N
1664931135.9,286046999.7,N
1664931155.7,286047000.2,N
1664931175.6,286047003.8,N
1664931225.4,286047004.4,E
1664931235.4,286046998.6,N
1664931255.2,286046997.2,P
1664931275.0,286046997.4,P
1664931275.9,286046997.4,Y
1664931295.8,286046998.1,P
1664931315.6,286046999.3,P
1664931335.4,286046994.9,P
1664931355.3,286046995.4,N
1664931375.1,286046995.3,N
1664931395.9,286046997.6,N
1664931415.7,286046994.2,Y
1664931435.5,286046996.7,P
1664931455.4,286046998.6,P
1664931475.2,286047000.5,N
1664931495.1,286047002.8,N
1664931496.0,286047002.8,N
1664931515.8,286046999.8,N
1664931535.6,286047001.4,N
1664931555.5,286047003.5,N
1664931575.3,286047001.9,N
1664931595.1,286047002.8,N
